Regional Weather Roundup
Issued by NWS

Home | Current Version | Previous Version | Graphics & Text | Print | Product List | Glossary Off
Versions: 1 2 3 4 5 6 7 8 9 10 11 12 13 14 15 16 17 18 19 20 21 22 23 24 25 26 27 28 29 30 31 32 33 34 35 36 37 38 39 40 41 42 43 44 45 46 47 48 49 50

000
ASUS43 KTOP 280008
RWRKS

WEATHER ROUNDUP FOR KANSAS
NATIONAL WEATHER SERVICE GOODLAND KS
700 PM CDT SUN JUL 27 2014

NOTE:  "FAIR" INDICATES FEW OR NO CLOUDS BELOW 12,000 FEET WITH NO
SIGNIFICANT WEATHER AND/OR OBSTRUCTIONS TO VISIBILITY.

KSZ001>006-013>018-027>032-041>047-280100-
NORTHWEST KANSAS

CITY           SKY/WX    TMP DP  RH WIND       PRES   REMARKS
GOODLAND       SUNNY     86  46  24 E8        30.26R
6HR MIN TEMP:  81; 6HR MAX TEMP:  88;

HAYS           SUNNY     90  48  24 N13       30.16S
HILL CITY      SUNNY     89  49  25 E9        30.17F
6HR MIN TEMP:  89; 6HR MAX TEMP:  93;

RUSSELL        SUNNY     89  48  24 N10       30.14S
6HR MIN TEMP:  85; 6HR MAX TEMP:  92;

$$

KSZ061>065-074>080-084>089-280100-
SOUTHWEST KANSAS

CITY           SKY/WX    TMP DP  RH WIND       PRES   REMARKS
DODGE CITY     MOSUNNY   87  50  27 E13       30.19F
6HR MIN TEMP:  76; 6HR MAX TEMP:  89;

ELKHART          N/A     81  62  52 E15         N/A
GARDEN CITY    SUNNY     85  53  33 E14       30.20F
6HR MIN TEMP:  79; 6HR MAX TEMP:  86;

GREAT BEND     SUNNY     88  52  29 NE9       30.13F
LIBERAL        SUNNY     84  57  39 E12G21    30.21S
PRATT          SUNNY     88  50  27 E9        30.16S
$$

KSZ066>073-081>083-090>101-280100-
SOUTHEAST KANSAS

CITY           SKY/WX    TMP DP  RH WIND       PRES   REMARKS
CHANUTE        MOSUNNY   87  58  37 NW6       30.06F
6HR MIN TEMP:  85; 6HR MAX TEMP:  90;

COFFEYVILLE    MOSUNNY   82  77  84 CALM      30.03R HAZE
6HR MIN TEMP:  76; 6HR MAX TEMP:  90; 6HR PCP:  0.11;

HUTCHINSON     SUNNY     89  53  29 N7        30.12S
6HR MIN TEMP:  79; 6HR MAX TEMP:  91; 6HR PCP: TRACE;

MEDICINE LODGE   N/A     88  59  37 NE10      30.12S
NEWTON         SUNNY     88  48  25 N16       30.14F
PARSONS        MOSUNNY   86  64  47 N6        30.05F
6HR MIN TEMP:  80; 6HR MAX TEMP:  89; 6HR PCP: TRACE;

WICHITA INTL   MOSUNNY   89  55  31 N9        30.09F
6HR MIN TEMP:  79; 6HR MAX TEMP:  91; 6HR PCP:  0.02;

WICHITA JABRA  SUNNY     90  50  25 N13       30.10S
6HR MIN TEMP:  78; 6HR MAX TEMP:  92; 6HR PCP:  0.03;

WICHITA MCCONL SUNNY     88  55  31 N8        30.10S
WINFIELD       MOSUNNY   83  73  72 SW6       30.10F
6HR MIN TEMP:  78; 6HR MAX TEMP:  83; 6HR PCP:  0.04;

$$

KSZ007>012-019>026-033>040-048>060-102>105-280100-
NORTHEAST KANSAS

CITY           SKY/WX    TMP DP  RH WIND       PRES   REMARKS
CONCORDIA      SUNNY     84  55  36 N13       30.13S
6HR MIN TEMP:  84; 6HR MAX TEMP:  88;

EMPORIA        SUNNY     88  50  27 N9        30.08R
6HR MIN TEMP:  85; 6HR MAX TEMP:  91;

LAWRENCE       SUNNY     87  57  35 NW12      30.06R
6HR MIN TEMP:  84; 6HR MAX TEMP:  92;

MANHATTAN      SUNNY     87  54  32 N13G20    30.09S
6HR MIN TEMP:  87; 6HR MAX TEMP:  93;

MARYSVILLE     SUNNY     82  59  44 NW18      30.12R
OLATHE IND     SUNNY     85  56  37 N13       30.07R
6HR MIN TEMP:  85; 6HR MAX TEMP:  90;

OLATHE EXE     SUNNY     85  56  37 N10       30.06R
6HR MIN TEMP:  85; 6HR MAX TEMP:  89;

SALINA         SUNNY     90  48  23 N16       30.11S
6HR MIN TEMP:  86; 6HR MAX TEMP:  95;

TOPEKA BILLARD SUNNY     87  56  34 N12       30.08R
6HR MIN TEMP:  87; 6HR MAX TEMP:  93;

TOPEKA FORBES  SUNNY     87  54  32 N13G22    30.08R
6HR MIN TEMP:  87; 6HR MAX TEMP:  93;

$$



USA.gov is the U.S. government's official web portal to all federal, state and local government web resources and services.